Location: Sungai Laei
(2.6000°N, 113.7167°E)
Time: 10:32:22
(UTC+00:00)

Cosmos 1821 Rocket - Pass Details

Date: 22 May 2022
Orbit: 945 x 1004 km, 82.9° (Epoch: 06 July)

Event Time Altitude Azimuth Distance (km) Brightness Sun altitude
Rises 21:31:17 0° 348° (NNW) 3,715 7.2 -10.9°
Reaches altitude 10° 21:33:51 10° 344° (NNW) 2,765 6.5 -10.3°
Maximum altitude 21:40:03 56° 267° (W) 1,174 4.1 -8.9°
Drops below altitude 10° 21:46:13 10° 190° (S) 2,749 6.1 -7.4°
Sets 21:48:47 0° 186° (S) 3,691 6.8 -6.8°
